FW7889 Weather Reports


Display with metric or nautical units.
time (UTC)temp
F
wind
direction
speed
MPH
gust
MPH
rain 1hr
in
rain 24hr
in
rain mn
in
humidity
%
barometer
mb
20260831025649 61 268 0.0 0.0 0.00 0.04 0.04 99 1074.8
20260831024647 61 272 0.0 0.0 0.00 0.04 0.04 99 1074.9
20260831023644 61 271 0.0 0.0 0.00 0.04 0.04 99 1074.9
20260831022638 61 263 0.0 1.0 0.00 0.04 0.04 99 1075.0
20260831021638 61 268 0.0 0.0 0.00 0.04 0.04 99 1074.7
20260831020635 61 264 0.0 1.0 0.00 0.04 0.04 99 1074.7
20260831015631 61 265 1.0 1.0 0.00 0.04 0.04 99 1074.7
20260831014631 61 263 0.0 0.0 0.00 0.04 0.04 99 1074.7
20260831013629 61 272 0.0 0.0 0.00 0.04 0.04 99 1074.7
20260831012629 61 263 1.0 1.0 0.00 0.04 0.04 99 1074.7
20260831011630 61 263 0.0 0.0 0.00 0.04 0.04 99 1074.3
20260831010627 61 259 0.0 0.0 0.00 0.04 0.04 99 1074.3
20260831005622 61 271 0.0 0.0 0.00 0.04 0.04 99 1074.2
20260831004619 61 271 0.0 0.0 0.00 0.04 0.04 99 1074.3
20260831003617 61 268 0.0 0.0 0.00 0.04 0.04 99 1074.2
20260831002616 61 258 0.0 0.0 0.00 0.04 0.04 99 1073.9
20260831001613 61 269 0.0 1.0 0.00 0.04 0.04 99 1074.0
20260831000611 61 271 0.0 0.0 0.00 0.04 0.04 99 1073.8
20260830235610 61 259 1.0 1.0 0.07 0.04 0.04 99 1073.7
20260830234605 61 267 0.0 0.0 0.00 0.03 0.03 99 1073.5
20260830233602 61 271 0.0 1.0 0.00 0.03 0.03 99 1073.7
20260830232559 61 274 1.0 1.0 0.00 0.03 0.03 99 1073.3
20260830231557 61 259 1.0 1.0 0.00 0.03 0.03 99 1073.1
20260830230551 61 277 0.0 0.0 0.00 0.03 0.03 99 1073.5
20260830225547 61 268 0.0 1.0 0.00 0.03 0.03 99 1073.7
20260830224545 61 274 0.0 0.0 0.00 0.03 0.03 99 1073.4
20260830223545 61 271 0.0 0.0 0.00 0.03 0.03 99 1073.6
20260830222545 61 263 1.0 1.0 0.00 0.03 0.03 99 1073.5
20260830221543 61 271 1.0 1.0 0.00 0.03 0.03 99 1073.3
20260830220538 61 271 0.0 0.0 0.00 0.03 0.03 99 1073.3
20260830215537 61 257 1.0 2.0 0.00 0.03 0.03 99 1073.4
20260830214533 61 279 1.0 2.0 0.00 0.03 0.03 99 1073.6
20260830213533 62 258 1.0 1.0 0.00 0.03 0.03 99 1073.5
20260830212530 61 263 1.0 2.0 0.05 0.03 0.03 99 1073.5
20260830211526 62 269 2.0 2.0 0.00 0.02 0.02 99 1073.5
20260830210526 62 278 0.0 0.0 0.07 0.02 0.02 99 1073.6
20260830205523 61 277 0.0 0.0 0.00 0.01 0.01 99 1073.8
20260830204518 61 252 4.0 5.0 0.00 0.01 0.01 99 1073.6
20260830203514 61 278 0.0 0.0 0.00 0.01 0.01 99 1073.4
20260830202509 61 264 1.0 1.0 0.00 0.01 0.01 99 1073.4
20260830201504 61 267 2.0 2.0 0.00 0.01 0.01 99 1073.6
20260830200459 62 278 1.0 2.0 0.00 0.01 0.01 99 1073.7
20260830195455 62 266 3.0 3.0 0.00 0.01 0.01 99 1073.7
20260830194452 63 255 2.0 2.0 0.07 0.01 0.01 99 1073.8
20260830193452 63 263 2.0 2.0 0.00 0.00 0.00 99 1073.8
20260830192448 63 263 2.0 2.0 0.00 0.00 0.00 99 1073.7
20260830191443 64 253 1.0 1.0 0.00 0.00 0.00 97 1074.1
20260830190440 65 265 1.0 1.0 0.00 0.00 0.00 93 1073.8
20260830185440 66 252 5.0 6.0 0.00 0.00 0.00 89 1073.7
20260830184440 67 267 1.0 1.0 0.00 0.00 0.00 84 1073.9
20260830183435 68 278 2.0 2.0 0.00 0.00 0.00 83 1073.7
20260830182432 69 270 1.0 1.0 0.00 0.00 0.00 81 1073.7
20260830181430 69 277 4.0 5.0 0.00 0.00 0.00 81 1073.6
20260830180430 70 309 1.0 2.0 0.00 0.00 0.00 79 1073.8
20260830175428 70 262 4.0 5.0 0.00 0.00 0.00 81 1073.7
20260830174426 69 270 1.0 1.0 0.00 0.00 0.00 79 1073.5
20260830173422 70 271 1.0 2.0 0.00 0.00 0.00 78 1073.7
20260830172420 70 272 1.0 1.0 0.00 0.00 0.00 78 1073.6
20260830171416 69 269 1.0 1.0 0.00 0.00 0.00 78 1073.6
20260830170416 69 260 2.0 2.0 0.00 0.00 0.00 79 1073.8
20260830165416 68 275 1.0 1.0 0.00 0.00 0.00 80 1073.9
20260830164414 69 272 1.0 1.0 0.00 0.00 0.00 79 1074.0
20260830163412 69 267 3.0 3.0 0.00 0.00 0.00 79 1074.0
20260830162408 69 246 3.0 5.0 0.00 0.00 0.00 80 1074.2
20260830161402 68 268 0.0 1.0 0.00 0.00 0.00 78 1074.0
20260830160358 68 278 0.0 0.0 0.00 0.00 0.00 78 1074.1
20260830155355 68 274 0.0 0.0 0.00 0.00 0.00 77 1074.4
20260830154353 69 284 1.0 1.0 0.00 0.00 0.00 78 1074.7
20260830153350 68 267 1.0 1.0 0.00 0.00 0.00 77 1074.4
20260830152349 68 255 3.0 3.0 0.00 0.00 0.00 76 1074.5
20260830151349 68 251 3.0 5.0 0.00 0.00 0.00 77 1074.4
20260830150349 67 293 0.0 0.0 0.00 0.00 0.00 79 1074.8
20260830145345 67 268 0.0 0.0 0.00 0.00 0.00 79 1074.5
20260830144342 66 273 0.0 0.0 0.00 0.00 0.00 82 1074.7
20260830143337 66 269 1.0 1.0 0.00 0.00 0.00 82 1074.6
20260830142333 65 269 1.0 2.0 0.00 0.00 0.00 84 1074.9
20260830141328 65 274 1.0 1.0 0.00 0.00 0.00 84 1075.1
20260830140324 64 273 2.0 2.0 0.00 0.00 0.00 83 1074.9
20260830135320 64 285 2.0 2.0 0.00 0.00 0.00 85 1074.9
20260830134315 64 277 3.0 3.0 0.00 0.00 0.00 85 1075.0
20260830133313 64 273 1.0 2.0 0.00 0.00 0.00 86 1074.8
20260830132310 63 271 0.0 1.0 0.00 0.00 0.00 85 1075.1
20260830131309 63 259 2.0 2.0 0.00 0.00 0.00 87 1075.4
20260830130305 62 267 1.0 1.0 0.00 0.00 0.00 89 1075.4
20260830125300 61 271 0.0 1.0 0.00 0.00 0.00 91 1075.4
20260830124258 61 293 1.0 1.0 0.00 0.00 0.00 94 1074.8
20260830123257 61 282 2.0 2.0 0.00 0.00 0.00 92 1074.5
20260830122255 61 280 2.0 2.0 0.00 0.00 0.00 92 1075.3
20260830121255 61 272 1.0 1.0 0.00 0.00 0.00 89 1075.4
20260830120253 61 280 1.0 2.0 0.00 0.00 0.00 89 1075.7
20260830115250 60 259 3.0 3.0 0.00 0.00 0.00 89 1075.6
20260830114247 58 264 1.0 1.0 0.00 0.00 0.00 98 1075.8
20260830113243 58 292 0.0 1.0 0.00 0.00 0.00 97 1075.6
20260830112241 58 281 0.0 0.0 0.00 0.00 0.00 95 1075.7
20260830111238 58 279 0.0 0.0 0.00 0.00 0.00 94 1075.6
20260830110234 58 275 0.0 0.0 0.00 0.00 0.00 94 1075.6
20260830105229 58 269 0.0 1.0 0.00 0.00 0.00 96 1075.4
20260830104229 57 264 0.0 0.0 0.00 0.00 0.00 96 1075.7
20260830103223 57 294 1.0 1.0 0.00 0.00 0.00 98 1075.6
20260830102223 56 287 0.0 0.0 0.00 0.00 0.00 99 1075.8
20260830101220 56 280 0.0 0.0 0.00 0.00 0.00 99 1075.4
20260830100220 55 285 0.0 0.0 0.00 0.00 0.00 99 1075.6
20260830095215 55 305 0.0 0.0 0.00 0.00 0.00 99 1075.8
20260830094213 55 293 0.0 1.0 0.00 0.00 0.00 99 1075.7
20260830093209 56 293 0.0 0.0 0.00 0.00 0.00 99 1075.6
20260830092206 56 308 1.0 1.0 0.00 0.00 0.00 99 1075.8
20260830091206 55 322 1.0 1.0 0.00 0.00 0.00 99 1075.7
20260830090202 55 312 1.0 1.0 0.00 0.00 0.00 99 1075.7
20260830085157 55 299 0.0 1.0 0.00 0.00 0.00 99 1075.8
20260830084153 55 294 1.0 1.0 0.00 0.00 0.00 99 1075.8
20260830083150 55 269 0.0 0.0 0.00 0.00 0.00 99 1076.1
20260830082145 55 315 1.0 1.0 0.00 0.00 0.00 99 1075.8
20260830081140 55 293 0.0 0.0 0.00 0.00 0.00 99 1075.7
20260830080136 55 287 0.0 0.0 0.00 0.00 0.00 99 1075.9
20260830075131 54 297 0.0 0.0 0.00 0.00 0.00 99 1075.9
20260830074128 54 291 0.0 0.0 0.00 0.00 0.00 99 1075.6
20260830073125 54 287 0.0 0.0 0.00 0.00 0.00 99 1075.8
20260830072120 54 303 0.0 0.0 0.00 0.00 0.00 99 1075.8
20260830071119 54 292 0.0 0.0 0.00 0.00 0.00 99 1075.8
20260830070116 54 270 0.0 0.0 0.00 0.00 0.00 99 1075.9
20260830065113 53 131 1.0 1.0 0.00 0.00 0.00 99 1075.9
20260830064108 53 292 0.0 0.0 0.00 0.00 0.00 99 1076.0
20260830063108 53 269 0.0 0.0 0.00 0.00 0.00 99 1075.9
20260830062108 53 311 0.0 1.0 0.00 0.00 0.00 99 1075.9
20260830061105 52 305 0.0 0.0 0.00 0.00 0.00 99 1076.0
20260830060104 52 293 0.0 0.0 0.00 0.00 0.00 99 1076.2
20260830055101 52 289 0.0 0.0 0.00 0.00 0.00 99 1076.1
20260830054057 52 299 0.0 0.0 0.00 0.00 0.00 99 1076.2
20260830053052 52 303 0.0 0.0 0.00 0.00 0.00 99 1076.3
20260830052048 52 291 0.0 0.0 0.00 0.00 0.00 99 1076.1
20260830051044 52 292 0.0 0.0 0.00 0.00 0.00 99 1076.3
20260830050044 52 292 0.0 0.0 0.00 0.00 0.00 99 1076.4
20260830045044 52 300 0.0 0.0 0.00 0.00 0.00 99 1076.3
20260830044044 52 293 0.0 0.0 0.00 0.00 0.00 99 1076.1
20260830043039 52 303 0.0 1.0 0.00 0.00 0.00 99 1076.2
20260830042038 52 311 1.0 1.0 0.00 0.00 0.00 99 1076.1
20260830041036 52 313 0.0 0.0 0.00 0.00 0.00 99 1076.1
20260830040033 52 288 0.0 0.0 0.00 0.00 0.00 99 1076.2
20260830035033 52 297 0.0 0.0 0.00 0.00 0.00 99 1076.2
20260830034027 52 288 0.0 0.0 0.00 0.00 0.00 99 1076.2
20260830033023 52 288 0.0 0.0 0.00 0.00 0.00 99 1076.2
20260830032018 53 295 0.0 0.0 0.00 0.00 0.00 99 1076.5
20260830031014 53 293 0.0 0.0 0.00 0.00 0.00 99 1076.3
20260830030011 53 289 0.0 0.0 0.00 0.00 0.00 99 1076.1